Powrót do katalogu

STARLINK-4564

AktywnyŁącznośćVLEO
NORAD 53560·PAYLOAD·🇺🇸 United States

Wystrzelony Aug 19, 2022 z Cape Canaveral Space Force Station

Loading…

Następne Przeloty (najbliższe 24 godziny)

TLE

ŚwieżeSource: CelesTrak SupGP

Epoka: Sep 14, 2026, 20:37 UTC

1 53560C 22101AK  26257.85951389  .00029641  00000+0  95316-3 0  2570
2 53560  53.1565 276.0554 0001202  89.3761 167.4591 15.31687815    13

Śledź STARLINK-4564 w czasie rzeczywistym z AllMySat

Download on the App Store